Temp
9 9 9 9 9 9 9 9 9 10 10 9 9 9 9 9 10 10 10 10 10 10
9 9 9 8 8 8 9 9 9 9 9 10 9 9 9 9 9 9 10 10 10 10
9 9 8 8 8 8 8 8 8 8 9 9 9 9 9 8 8 9 9 9 9 9
10 9 8 8 8 8 8 8 8 9 9 9 9 9 9 9 9 8 9 9 9 9
10 9 9 8 8 8 8 8 8 9 8 9 9 9 9 9 9 9 9 9 9 9
10 10 9 9 9 8 8 8 8 8 8 9 9 9 9 9 9 9 9 9 9 9
9 9 9 9 9 9 8 8 8 9 9 9 9 9 9 9 9 9 9 9 9 9
9 9 9 9 9 9 9 9 9 8 8 9 9 9 8 8 8 8 8 8 8 8
8 8 9 9 9 9 9 9 9 8 8 9 8 8 8 8 8 8 8 8 8 8
7 7 8 8 8 8 8 8 8 8 8 8 8 8 8 8 8 8 8 8 8 8
7 7 7 7 7 7 7 7 7 7 7 7 7 8 8 8 8 8 8 8 8 7
6 6 7 6 6 6 6 6 6 6 6 6 6 7 7 7 7 7 7 7 7 7
4 5 5 5 5 3 2 1 1 1 1 1 1 2 3 5 5 5 5 5 5 5
3 3 3 1 2 1 -1 -1 -1 -1 -1 -1 -1 1 2 3 3 3 2 2 2 2
Height
1445 1448 1451 1455 1457 1460 1462 1464 1466 1470 1475 1480 1483 1491 1496 1501 1505 1509 1513 1517 1522 1526
1441 1445 1448 1451 1454 1456 1459 1461 1465 1468 1472 1476 1482 1486 1490 1494 1499 1504 1508 1512 1517 1519
1439 1442 1445 1449 1451 1454 1456 1459 1462 1465 1469 1473 1476 1482 1486 1488 1493 1498 1502 1505 1509 1512
1436 1439 1443 1446 1448 1451 1454 1456 1459 1463 1466 1469 1473 1478 1481 1484 1487 1491 1495 1499 1501 1504
1434 1437 1440 1443 1446 1449 1451 1453 1456 1459 1462 1465 1469 1474 1477 1479 1482 1485 1487 1491 1495 1497
1433 1436 1438 1441 1443 1446 1449 1451 1453 1456 1459 1462 1466 1469 1472 1474 1477 1480 1483 1486 1488 1490
1432 1434 1437 1439 1441 1443 1446 1449 1452 1454 1457 1459 1462 1465 1468 1470 1472 1474 1476 1478 1479 1481
1429 1432 1434 1436 1438 1441 1444 1447 1449 1451 1453 1456 1458 1461 1462 1463 1465 1466 1466 1467 1468 1469
1426 1428 1431 1433 1435 1437 1439 1441 1443 1446 1447 1450 1451 1449 1451 1453 1454 1455 1456 1456 1456 1456
1425 1426 1428 1430 1431 1433 1435 1437 1439 1440 1441 1442 1442 1442 1443 1445 1446 1447 1447 1447 1446 1445
1425 1424 1426 1426 1428 1429 1431 1432 1434 1435 1436 1435 1436 1436 1436 1437 1438 1439 1440 1440 1439 1436
1423 1423 1424 1424 1425 1425 1427 1428 1429 1430 1430 1430 1430 1429 1429 1429 1430 1431 1429 1429 1426 1422
1422 1421 1422 1423 1422 1422 1424 1425 1427 1427 1426 1425 1426 1425 1423 1422 1422 1422 1421 1420 1417 1414
1423 1422 1422 1423 1420 1421 1423 1426 1426 1425 1425 1425 1423 1422 1420 1418 1416 1415 1414 1412 1410 1407
Wind_Speed
19 19 18 17 18 20 21 20 21 28 24 25 38 36 35 36 36 37 40 41 38 36
18 18 18 16 14 14 15 17 20 24 27 28 29 33 34 41 39 38 39 42 41 42
12 13 14 10 10 10 10 13 16 21 22 25 33 28 33 34 41 42 40 42 45 46
10 11 11 11 11 9 8 12 14 17 19 22 28 32 28 30 32 43 48 47 45 49
9 9 9 10 10 11 11 11 13 16 15 17 22 28 27 26 27 30 40 40 43 45
7 6 7 7 7 9 10 10 11 15 16 17 20 23 22 25 27 26 28 33 36 39
7 5 4 6 7 7 8 10 12 14 16 18 20 23 25 26 28 30 33 35 38 40
10 10 9 8 9 9 10 11 12 14 16 19 23 26 29 32 36 38 38 39 41 44
7 9 12 12 12 12 12 13 15 17 20 22 26 32 33 35 37 36 35 38 41 44
5 6 8 10 12 13 15 16 17 19 20 22 26 30 30 32 33 34 37 39 40 43
4 5 6 7 9 9 10 13 15 17 19 20 23 27 29 31 31 32 34 38 42 45
5 4 3 3 3 5 7 10 12 14 16 17 20 26 29 32 31 30 30 32 33 40
9 7 6 5 4 5 3 3 2 2 4 6 11 13 16 17 16 17 19 22 28 34
10 10 9 9 9 8 8 8 7 8 8 9 11 12 11 7 5 6 8 10 13 17
Wind_Direction
213 220 222 227 232 238 245 239 230 222 230 219 212 211 217 216 218 219 229 226 226 230
207 213 219 229 218 227 225 231 222 215 224 227 206 213 220 217 215 216 219 226 231 239
205 210 208 202 201 211 221 221 214 216 220 224 219 224 226 220 219 219 223 224 229 233
193 197 205 207 209 211 216 214 223 217 225 223 224 229 236 232 238 224 227 227 229 234
194 205 213 217 214 214 217 218 217 221 226 227 224 227 237 237 235 244 230 236 238 245
183 194 212 218 226 231 229 230 226 222 225 226 227 232 239 243 246 250 244 246 251 251
218 229 228 226 230 236 240 238 238 241 243 244 242 243 248 250 253 256 257 257 257 257
220 232 234 232 231 241 248 250 252 251 251 254 255 258 258 260 263 263 264 265 264 261
220 225 227 230 231 231 242 251 259 264 263 261 261 254 253 255 259 262 263 265 267 268
198 206 213 223 228 234 241 247 251 255 260 260 260 265 267 269 268 268 268 272 275 275
196 204 217 222 229 234 239 241 241 243 246 248 252 257 260 264 266 267 269 270 272 274
118 126 153 181 192 212 233 244 249 251 254 262 268 269 269 268 271 273 270 267 268 265
72 80 87 94 90 81 64 56 31 345 310 303 297 308 308 301 293 287 283 276 271 270
72 75 75 73 71 70 69 63 57 47 36 17 13 16 16 4 333 294 278 274 277 285